Total_Precipitation_Accumulation
1.26 1.34 1.40 1.49 1.57 1.65 1.67 1.64 1.63 1.64 1.66 1.68 1.75 1.78 1.80 1.86 2.05 2.21 2.11 2.35 2.46 2.47 2.27 2.20 2.12 2.12 2.13 1.96 2.03 2.17 2.23 2.51 2.49 1.93 1.80 1.87 1.95 1.89 1.95 1.87 1.80 1.83 1.66
1.21 1.38 1.47 1.60 1.63 1.57 1.55 1.73 1.77 1.77 1.76 1.76 1.83 1.94 1.92 1.95 2.08 2.07 1.95 2.05 2.22 2.39 2.59 2.70 2.45 2.40 2.39 2.20 2.21 2.20 2.23 2.41 2.44 2.25 2.07 2.06 2.09 2.04 2.02 1.84 1.56 1.48 1.53
1.15 1.33 1.54 1.62 1.66 1.73 1.84 1.99 2.08 2.02 1.99 2.01 2.08 2.05 2.07 2.12 2.10 2.03 2.04 2.07 2.17 2.25 2.48 2.70 2.70 2.79 2.53 2.50 2.42 2.32 2.26 2.21 2.38 2.24 2.04 2.22 2.21 2.18 2.12 1.76 1.60 1.63 1.46
1.45 1.58 1.69 1.86 1.97 2.01 1.97 2.06 2.10 2.14 2.19 2.19 2.23 2.18 2.15 2.17 2.18 2.16 2.14 2.12 2.20 2.20 2.25 2.35 2.47 2.74 2.72 2.74 2.56 2.55 2.57 2.54 2.60 2.47 2.34 2.42 2.56 2.57 2.43 2.06 1.89 1.77 1.63
1.78 1.86 1.89 1.95 2.06 2.18 2.30 2.33 2.32 2.32 2.27 2.41 2.39 2.30 2.30 2.31 2.14 2.26 2.44 2.41 2.48 2.31 2.24 2.20 2.18 2.40 2.47 2.50 2.26 2.40 2.61 2.64 2.65 2.58 2.54 2.59 2.62 2.75 2.44 2.20 2.04 2.00 1.86
2.25 2.37 2.48 2.53 2.59 2.65 2.68 2.70 2.74 2.70 2.64 2.56 2.43 2.46 2.46 2.24 2.37 2.43 2.35 2.38 2.57 2.57 2.46 2.38 2.25 2.18 2.17 2.21 2.24 2.30 2.41 2.41 2.45 2.49 2.44 2.47 2.55 2.66 2.78 2.62 2.38 2.18 1.94
2.40 2.50 2.62 2.74 2.87 2.96 2.97 2.96 2.85 2.78 2.70 2.58 2.58 2.61 2.55 2.58 2.53 2.29 2.15 2.15 2.22 2.33 2.40 2.39 2.11 1.97 2.15 2.09 2.25 2.26 2.11 2.03 2.02 2.12 2.14 2.17 2.59 2.87 3.15 2.85 2.63 2.40 2.10
2.50 2.58 2.63 2.69 2.79 2.93 3.10 3.03 2.88 2.81 2.76 2.72 2.67 2.54 2.46 2.37 2.36 2.13 2.10 2.01 1.96 1.90 2.01 2.13 2.09 2.00 2.03 2.12 2.07 1.86 1.69 1.68 1.69 1.59 1.62 1.87 2.27 2.81 3.10 3.07 3.04 2.78 2.44
2.23 2.39 2.40 2.53 2.72 2.82 2.86 2.88 2.93 2.88 2.70 2.56 2.43 2.37 2.31 2.36 2.52 2.26 2.13 1.94 1.94 1.81 1.79 1.80 1.85 1.74 1.85 1.91 1.85 1.65 1.52 1.48 1.49 1.50 1.47 1.64 1.91 2.23 2.62 2.82 2.73 2.52 2.15
2.21 2.40 2.57 2.68 2.81 2.85 2.90 3.00 3.00 2.94 2.90 2.86 2.70 2.56 2.46 2.43 2.58 2.30 2.11 1.93 1.94 1.90 1.90 1.89 1.97 1.75 1.66 1.59 1.53 1.55 1.38 1.29 1.41 1.40 1.36 1.39 1.49 1.75 2.15 2.24 2.24 2.29 2.05
2.25 2.33 2.46 2.62 2.80 3.01 3.18 3.12 3.07 3.00 2.89 2.70 2.52 2.39 2.33 2.33 2.30 2.08 1.94 1.73 1.72 1.77 1.68 1.61 1.66 1.68 1.47 1.31 1.30 1.28 1.21 1.25 1.33 1.30 1.24 1.22 1.35 1.47 1.62 1.88 2.02 2.02 1.93
2.31 2.39 2.45 2.61 2.65 2.75 2.95 2.94 2.82 2.79 2.76 2.69 2.63 2.54 2.45 2.31 2.09 1.85 1.70 1.58 1.59 1.60 1.69 1.70 1.74 1.77 1.51 1.35 1.20 1.08 1.10 1.09 1.10 1.18 1.16 1.12 1.17 1.26 1.46 1.72 1.98 2.05 1.95
2.29 2.42 2.58 2.65 2.67 2.78 2.93 2.95 2.85 2.75 2.65 2.54 2.45 2.26 2.23 2.26 2.17 1.91 1.66 1.55 1.55 1.48 1.68 1.98 1.99 1.93 1.71 1.42 1.31 1.29 1.20 1.07 1.08 1.10 1.08 1.05 1.09 1.25 1.53 1.82 2.04 2.21 2.15
2.24 2.30 2.44 2.57 2.69 2.83 2.84 2.73 2.59 2.42 2.32 2.26 2.16 2.05 2.04 2.10 2.00 1.92 1.80 1.71 1.67 1.57 1.63 1.89 2.03 2.04 1.92 1.72 1.61 1.52 1.31 1.21 1.27 1.25 1.27 1.31 1.41 1.55 1.70 1.83 2.03 2.17 2.23
2.21 2.25 2.24 2.27 2.37 2.49 2.56 2.50 2.36 2.22 2.11 2.03 1.92 1.90 1.89 1.88 1.89 1.90 1.75 1.64 1.62 1.67 1.77 1.96 2.11 2.21 2.21 2.13 2.02 1.93 1.80 1.64 1.49 1.45 1.51 1.51 1.55 1.64 1.70 1.84 2.06 2.15 2.09
2.23 2.11 2.03 1.95 1.96 1.98 1.98 2.03 2.14 2.03 2.02 1.88 1.77 1.69 1.64 1.68 1.70 1.65 1.55 1.48 1.53 1.66 1.72 1.83 2.06 2.25 2.33 2.41 2.45 2.33 2.11 1.93 1.77 1.74 1.68 1.65 1.67 1.68 1.73 1.88 2.10 2.20 2.07
2.12 1.98 1.87 1.81 1.81 1.75 1.71 1.73 1.83 1.88 1.83 1.74 1.73 1.61 1.48 1.52 1.49 1.45 1.44 1.42 1.46 1.53 1.56 1.68 1.79 1.91 2.10 2.32 2.42 2.41 2.20 2.07 2.09 2.04 1.94 1.89 1.90 1.91 1.91 2.02 2.20 2.31 2.25
1.94 2.00 1.85 1.74 1.79 1.79 1.76 1.73 1.75 1.80 1.80 1.71 1.70 1.65 1.42 1.30 1.28 1.30 1.34 1.30 1.21 1.24 1.31 1.47 1.64 1.79 1.95 2.22 2.39 2.43 2.36 2.29 2.29 2.31 2.27 2.20 2.17 2.12 2.03 1.98 2.11 2.23 2.26
1.77 1.80 1.81 1.80 1.78 1.79 1.80 1.72 1.66 1.64 1.66 1.59 1.54 1.61 1.55 1.37 1.29 1.31 1.33 1.21 1.15 1.16 1.26 1.30 1.37 1.54 1.74 1.99 2.25 2.42 2.42 2.31 2.24 2.29 2.28 2.21 2.19 2.20 2.10 2.00 2.06 2.24 2.30
1.69 1.82 1.75 1.75 1.75 1.72 1.77 1.78 1.73 1.73 1.69 1.61 1.54 1.55 1.56 1.45 1.34 1.44 1.50 1.47 1.39 1.36 1.36 1.37 1.46 1.60 1.76 1.98 2.18 2.29 2.34 2.33 2.28 2.25 2.20 2.14 2.12 2.12 2.00 1.95 1.96 2.05 2.09
1.55 1.60 1.68 1.54 1.57 1.65 1.63 1.66 1.69 1.71 1.68 1.61 1.51 1.51 1.48 1.35 1.43 1.53 1.64 1.68 1.60 1.51 1.47 1.47 1.52 1.61 1.78 1.97 2.10 2.20 2.23 2.27 2.30 2.29 2.24 2.15 2.10 2.08 2.03 2.00 1.99 2.02 2.01
1.55 1.45 1.45 1.48 1.60 1.66 1.69 1.71 1.75 1.73 1.69 1.68 1.66 1.67 1.65 1.43 1.51 1.59 1.63 1.71 1.74 1.73 1.68 1.67 1.66 1.67 1.73 1.87 2.04 2.15 2.17 2.17 2.20 2.24 2.26 2.22 2.19 2.16 2.18 2.15 2.11 2.10 2.09
1.62 1.57 1.53 1.52 1.64 1.76 1.79 1.82 1.85 1.82 1.80 1.78 1.74 1.72 1.72 1.64 1.67 1.75 1.78 1.81 1.82 1.80 1.75 1.73 1.71 1.73 1.76 1.79 1.86 1.98 2.05 2.03 1.99 2.03 2.12 2.10 2.06 2.03 2.04 2.05 2.02 2.03 2.01
1.48 1.56 1.58 1.56 1.60 1.63 1.65 1.67 1.67 1.66 1.68 1.68 1.72 1.79 1.81 1.81 1.85 1.88 1.83 1.77 1.71 1.68 1.68 1.66 1.64 1.62 1.66 1.72 1.74 1.73 1.78 1.82 1.76 1.74 1.84 1.93 1.92 1.89 1.91 1.90 1.94 1.99 2.05
1.32 1.49 1.56 1.54 1.51 1.53 1.50 1.43 1.42 1.50 1.61 1.73 1.79 1.81 1.84 1.86 1.84 1.77 1.68 1.59 1.52 1.54 1.57 1.56 1.53 1.45 1.42 1.44 1.47 1.49 1.64 1.66 1.62 1.58 1.58 1.67 1.72 1.75 1.78 1.80 1.85 1.97 2.10
1.31 1.42 1.48 1.48 1.48 1.51 1.54 1.50 1.44 1.48 1.57 1.62 1.67 1.67 1.68 1.69 1.68 1.62 1.54 1.47 1.43 1.41 1.45 1.47 1.42 1.29 1.25 1.24 1.26 1.31 1.31 1.25 1.33 1.46 1.47 1.49 1.57 1.66 1.68 1.70 1.73 1.84 1.96